Weather History for Iron Mountain, MI

Change the Weather History Date:

Wednesday, October 30, 2013

  Actual Average Record
Temperature  
Mean Temperature 40 °F -  
Max Temperature 48 °F 51 °F 76 °F (1950)
Min Temperature 33 °F 29 °F 13 °F (1988)
Degree Days  
Heating Degree Days 24    
Moisture  
Dew Point 39 °F    
Average Humidity 95    
Maximum Humidity 100    
Minimum Humidity 87    
Precipitation  
Precipitation 0.00 in - - ()
Sea Level Pressure  
Sea Level Pressure 30.00 in    
Wind  
Wind Speed 1 mph (SE)    
Max Wind Speed 8 mph    
Max Gust Speed -    
Visibility 2 miles    
Events Fog , Rain    
Averages and records for this station are not official NWS values.
T = Trace of Precipitation, MM = Missing Value Source: NWS Daily Summary

Daily Weather History Graph

Daily Weather History Graph

Search for Another Location

Airport:

Trip Planner

Search our weather history database for the weather conditions in past years. The results will help you decide how hot, cold, wet, or windy it might be!

Date:

Astronomy

Oct. 30, 2013 Rise Set
Actual Time 7:30 AM CDT 5:41 PM CDT
Civil Twilight 6:59 AM CDT 6:12 PM CDT
Nautical Twilight 6:24 AM CDT 6:47 PM CDT
Astronomical Twilight 5:49 AM CDT 7:21 PM CDT
Moon 3:06 AM CDT (10/30) 3:37 PM CDT (10/30)
Length of Visible Light 11h 13m
Length of Day
10h 11m
Waning Crescent, 17% of the Moon is Illuminated
Oct 30
Waning Crescent
Nov 3
New
Nov 9
First Quarter
Nov 17
Full
Nov 25
Last Quarter

Hourly Weather History & Observations

Time (CDT) Temp. Windchill Dew Point Humidity Pressure Visibility Wind Dir Wind Speed Gust Speed Precip Events Conditions
12:54 AM 33.1 °F - 32.0 °F 96% 30.20 in 5.0 mi Calm Calm - 0.00 in   Overcast
1:06 AM 33.8 °F - 32.0 °F 93% 30.15 in 4.0 mi Calm Calm - N/A   Overcast
1:22 AM 33.8 °F - 32.0 °F 93% 30.15 in 4.0 mi Calm Calm - N/A   Overcast
1:54 AM 34.0 °F - 32.0 °F 92% 30.19 in 5.0 mi Calm Calm - 0.00 in Rain Light Rain
2:54 AM 34.0 °F - 33.1 °F 96% 30.18 in 4.0 mi Calm Calm - 0.00 in   Overcast
3:05 AM 33.8 °F - 33.8 °F 100% 30.13 in 4.0 mi Calm Calm - N/A   Overcast
3:54 AM 35.1 °F - 33.1 °F 92% 30.17 in 5.0 mi Calm Calm - N/A   Overcast
4:54 AM 35.1 °F - 33.1 °F 92% 30.17 in 6.0 mi Calm Calm - N/A   Overcast
5:03 AM 35.6 °F - 33.8 °F 93% 30.12 in 6.0 mi Calm Calm - N/A   Overcast
5:54 AM 35.1 °F - 34.0 °F 96% 30.16 in 5.0 mi Calm Calm - 0.00 in Rain Light Rain
6:05 AM 35.6 °F - 33.8 °F 93% 30.11 in 5.0 mi Calm Calm - 0.00 in Rain Light Rain
6:15 AM 35.6 °F - 33.8 °F 93% 30.11 in 5.0 mi Calm Calm - 0.00 in   Overcast
6:54 AM 35.1 °F - 34.0 °F 96% 30.15 in 5.0 mi Calm Calm - 0.00 in   Overcast
7:54 AM 36.0 °F - 34.0 °F 93% 30.14 in 4.0 mi Calm Calm - N/A   Overcast
8:04 AM 35.6 °F - 33.8 °F 93% 30.10 in 4.0 mi Calm Calm - N/A   Overcast
8:54 AM 37.0 °F - 35.1 °F 93% 30.14 in 3.0 mi Calm Calm - N/A   Overcast
9:43 AM 37.4 °F - 35.6 °F 93% 30.08 in 3.0 mi Calm Calm - 0.00 in Rain Light Rain
9:54 AM 37.0 °F 34.5 °F 36.0 °F 96% 30.12 in 3.0 mi SSE 3.5 mph - 0.00 in Rain Light Rain
10:14 AM 37.4 °F 34.9 °F 35.6 °F 93% 30.07 in 1.8 mi SE 3.5 mph - 0.00 in   Overcast
10:45 AM 37.4 °F - 37.4 °F 100% 30.07 in 0.8 mi Calm Calm - 0.00 in   Overcast
10:54 AM 37.9 °F - 37.0 °F 97% 30.11 in 0.5 mi Calm Calm - 0.00 in Fog Fog
11:21 AM 39.2 °F - 37.4 °F 93% 30.07 in 0.2 mi Calm Calm - N/A Fog Fog
11:44 AM 39.2 °F 37.0 °F 37.4 °F 93% 30.06 in 0.5 mi SE 3.5 mph - N/A Fog Fog
11:54 AM 39.0 °F - 39.0 °F 100% 30.10 in 0.5 mi Calm Calm - N/A Fog Fog
12:31 PM 39.2 °F - 39.2 °F 100% 30.04 in 0.2 mi Calm Calm - N/A Fog Fog
12:54 PM 39.9 °F 37.8 °F 39.9 °F 100% 30.07 in 0.2 mi SSE 3.5 mph - N/A Fog Fog
1:42 PM 41.0 °F - 39.2 °F 93% 30.00 in 0.5 mi Calm Calm - 0.00 in Fog Fog
1:54 PM 41.0 °F 39.0 °F 39.9 °F 96% 30.03 in 0.5 mi ESE 3.5 mph - 0.00 in Fog Fog
2:19 PM 41.0 °F - 39.2 °F 93% 29.97 in 1.0 mi Calm Calm - N/A   Overcast
2:39 PM 41.0 °F 39.0 °F 39.2 °F 93% 29.98 in 2.0 mi SSE 3.5 mph - N/A   Overcast
2:50 PM 42.8 °F 41.1 °F 39.2 °F 87% 29.97 in 1.8 mi ESE 3.5 mph - N/A   Overcast
2:54 PM 42.1 °F 40.2 °F 41.0 °F 96% 30.00 in 1.8 mi ESE 3.5 mph - N/A   Overcast
3:03 PM 42.8 °F 41.1 °F 41.0 °F 93% 29.96 in 2.5 mi SE 3.5 mph - N/A   Overcast
3:33 PM 42.8 °F 40.1 °F 41.0 °F 93% 29.94 in 1.2 mi SE 4.6 mph - N/A   Overcast
3:45 PM 42.8 °F 40.1 °F 41.0 °F 93% 29.94 in 0.5 mi SE 4.6 mph - N/A Fog Fog
3:52 PM 42.8 °F 41.1 °F 42.8 °F 100% 29.93 in 0.2 mi SE 3.5 mph - N/A Fog Fog
3:54 PM 43.0 °F 41.3 °F 42.1 °F 97% 29.96 in 0.2 mi ESE 3.5 mph - N/A Fog Fog
4:54 PM 43.0 °F - 42.1 °F 97% 29.95 in 0.2 mi Calm Calm - N/A Fog Fog
5:54 PM 43.0 °F - 42.1 °F 97% 29.92 in 0.2 mi Calm Calm - N/A Fog Fog
6:54 PM 43.0 °F 41.3 °F 42.1 °F 97% 29.91 in 0.2 mi SE 3.5 mph - N/A Fog Fog
7:32 PM 44.6 °F - 44.6 °F 100% 29.86 in 0.5 mi Calm Calm - 0.00 in Fog , Rain Light Rain
7:54 PM 45.0 °F 42.6 °F 44.1 °F 97% 29.88 in 0.2 mi ESE 4.6 mph - 0.00 in Fog Fog
8:04 PM 44.6 °F 43.1 °F 44.6 °F 100% 29.84 in 0.5 mi SE 3.5 mph - N/A Fog Fog
8:13 PM 46.4 °F 43.5 °F 44.6 °F 93% 29.83 in 0.2 mi SE 5.8 mph - N/A Fog Fog
8:23 PM 46.4 °F 43.5 °F 44.6 °F 93% 29.83 in 0.5 mi SE 5.8 mph - N/A Fog Fog
8:45 PM 46.4 °F 42.9 °F 46.4 °F 100% 29.82 in 1.0 mi SSE 6.9 mph - N/A   Overcast
8:54 PM 46.9 °F - 46.0 °F 97% 29.84 in 1.0 mi SSE 6.9 mph - N/A   Overcast
9:01 PM 46.4 °F 42.9 °F 46.4 °F 100% 29.81 in 0.8 mi SSE 6.9 mph - N/A   Overcast
9:10 PM 48.2 °F - 46.4 °F 93% 29.80 in 1.0 mi SSE 8.1 mph - N/A   Overcast
9:54 PM 48.0 °F - 46.9 °F 96% 29.82 in 0.8 mi SE 3.5 mph - N/A   Overcast
10:51 PM 48.2 °F - 46.4 °F 93% 29.78 in 0.2 mi Calm Calm - N/A Fog Fog
10:54 PM 48.0 °F - 46.9 °F 96% 29.81 in 0.2 mi Calm Calm - N/A Fog Fog
11:08 PM 48.2 °F - 46.4 °F 93% 29.78 in 0.5 mi Calm Calm - N/A Fog Fog
11:18 PM 46.4 °F 45.2 °F 46.4 °F 100% 29.77 in 0.2 mi SSE 3.5 mph - N/A Fog Fog
11:54 PM 48.0 °F - 46.9 °F 96% 29.77 in 0.2 mi SSE 3.5 mph - N/A Fog Fog